Time,TemperatureF,DewpointF,PressureIn,WindDirection,WindDirectionDegrees,WindSpeedMPH,WindSpeedGustMPH,Humidity,HourlyPrecipIn,Conditions,Clouds,dailyrainin,SoftwareType,DateUTC
2013-04-16 00:00:00,37.0,28.0,30.64,West,270,0.0,0.0,70,0.00,,,0.00,Rainwise IP-100,2013-04-16 04:00:00,
2013-04-16 00:05:00,37.0,28.0,30.64,WSW,247,0.0,3.0,70,0.00,,,0.00,Rainwise IP-100,2013-04-16 04:05:00,
2013-04-16 00:10:00,37.0,28.0,30.65,SW,225,0.0,2.0,70,0.00,,,0.00,Rainwise IP-100,2013-04-16 04:10:00,
2013-04-16 00:15:00,37.0,28.0,30.65,SW,225,0.0,0.0,70,0.00,,,0.00,Rainwise IP-100,2013-04-16 04:15:00,
2013-04-16 00:16:00,37.0,28.0,30.65,SW,225,0.0,0.0,69,0.00,,,0.00,Rainwise IP-100,2013-04-16 04:16:00,
2013-04-16 00:22:00,37.0,28.0,30.64,WNW,292,0.0,3.0,69,0.00,,,0.00,Rainwise IP-100,2013-04-16 04:22:00,
2013-04-16 00:27:00,37.0,28.0,30.64,WNW,292,0.0,0.0,69,0.00,,,0.00,Rainwise IP-100,2013-04-16 04:27:00,
2013-04-16 00:32:00,37.0,28.0,30.64,SSW,202,0.0,5.0,69,0.00,,,0.00,Rainwise IP-100,2013-04-16 04:32:00,
2013-04-16 00:37:00,37.0,28.0,30.64,South,180,0.0,2.0,69,0.00,,,0.00,Rainwise IP-100,2013-04-16 04:37:00,
2013-04-16 00:42:00,37.0,28.0,30.64,West,270,0.0,1.0,69,0.00,,,0.00,Rainwise IP-100,2013-04-16 04:42:00,
2013-04-16 00:47:00,37.0,28.0,30.64,West,270,0.0,0.0,69,0.00,,,0.00,Rainwise IP-100,2013-04-16 04:47:00,
2013-04-16 00:52:00,37.0,28.0,30.64,SSE,157,1.0,2.0,69,0.00,,,0.00,Rainwise IP-100,2013-04-16 04:52:00,
2013-04-16 00:57:00,37.0,28.0,30.64,SSW,202,0.0,2.0,69,0.00,,,0.00,Rainwise IP-100,2013-04-16 04:57:00,
2013-04-16 01:02:00,37.0,28.0,30.65,NNW,337,0.0,8.0,69,0.00,,,0.00,Rainwise IP-100,2013-04-16 05:02:00,
2013-04-16 01:08:00,37.0,28.0,30.65,WSW,247,0.0,0.0,69,0.00,,,0.00,Rainwise IP-100,2013-04-16 05:08:00,
2013-04-16 01:13:00,37.0,28.0,30.65,NW,315,2.0,4.0,69,0.00,,,0.00,Rainwise IP-100,2013-04-16 05:13:00,
2013-04-16 01:18:00,37.0,28.0,30.65,SSE,157,0.0,6.0,69,0.00,,,0.00,Rainwise IP-100,2013-04-16 05:18:00,
2013-04-16 01:21:00,37.0,28.0,30.65,WNW,292,0.0,5.0,69,0.00,,,0.00,Rainwise IP-100,2013-04-16 05:21:00,
2013-04-16 01:27:00,37.0,28.0,30.65,WSW,247,0.0,3.0,69,0.00,,,0.00,Rainwise IP-100,2013-04-16 05:27:00,
2013-04-16 01:32:00,37.0,28.0,30.65,SSW,202,0.0,5.0,69,0.00,,,0.00,Rainwise IP-100,2013-04-16 05:32:00,
2013-04-16 01:38:00,37.0,28.0,30.65,SSW,202,1.0,6.0,69,0.00,,,0.00,Rainwise IP-100,2013-04-16 05:38:00,
2013-04-16 01:43:00,37.0,28.0,30.64,North,360,0.0,6.0,69,0.00,,,0.00,Rainwise IP-100,2013-04-16 05:43:00,
2013-04-16 01:48:00,37.0,28.0,30.64,WNW,292,0.0,3.0,69,0.00,,,0.00,Rainwise IP-100,2013-04-16 05:48:00,
2013-04-16 01:53:00,37.0,28.0,30.64,WNW,292,0.0,6.0,69,0.00,,,0.00,Rainwise IP-100,2013-04-16 05:53:00,
2013-04-16 01:58:00,37.0,28.0,30.63,SSW,202,0.0,9.0,69,0.00,,,0.00,Rainwise IP-100,2013-04-16 05:58:00,
2013-04-16 02:03:00,37.0,28.0,30.63,ENE,67,0.0,7.0,69,0.00,,,0.00,Rainwise IP-100,2013-04-16 06:03:00,
2013-04-16 02:08:00,37.0,28.0,30.63,SSE,157,0.0,5.0,69,0.00,,,0.00,Rainwise IP-100,2013-04-16 06:08:00,
2013-04-16 02:13:00,37.0,28.0,30.63,SSE,157,0.0,4.0,69,0.00,,,0.00,Rainwise IP-100,2013-04-16 06:13:00,
2013-04-16 02:18:00,37.0,28.0,30.63,SSE,157,0.0,6.0,69,0.00,,,0.00,Rainwise IP-100,2013-04-16 06:18:00,
2013-04-16 02:23:00,37.0,28.0,30.63,SSE,157,0.0,2.0,69,0.00,,,0.00,Rainwise IP-100,2013-04-16 06:23:00,
2013-04-16 02:28:00,37.0,28.0,30.63,SSE,157,0.0,0.0,69,0.00,,,0.00,Rainwise IP-100,2013-04-16 06:28:00,
2013-04-16 02:33:00,37.0,28.0,30.63,SSE,157,2.0,4.0,69,0.00,,,0.00,Rainwise IP-100,2013-04-16 06:33:00,
2013-04-16 02:38:00,37.0,28.0,30.63,SSE,157,0.0,5.0,69,0.00,,,0.00,Rainwise IP-100,2013-04-16 06:38:00,
2013-04-16 02:43:00,37.0,28.0,30.63,South,180,0.0,2.0,69,0.00,,,0.00,Rainwise IP-100,2013-04-16 06:43:00,
2013-04-16 02:48:00,37.0,28.0,30.63,WSW,247,0.0,1.0,69,0.00,,,0.00,Rainwise IP-100,2013-04-16 06:48:00,
2013-04-16 02:54:00,37.0,28.0,30.63,SSE,157,0.0,2.0,69,0.00,,,0.00,Rainwise IP-100,2013-04-16 06:54:00,
2013-04-16 02:59:00,37.0,28.0,30.62,SSE,157,2.0,5.0,69,0.00,,,0.00,Rainwise IP-100,2013-04-16 06:59:00,
2013-04-16 03:04:00,37.0,28.0,30.62,SW,225,0.0,4.0,69,0.00,,,0.00,Rainwise IP-100,2013-04-16 07:04:00,
2013-04-16 03:09:00,37.0,28.0,30.63,SW,225,0.0,0.0,69,0.00,,,0.00,Rainwise IP-100,2013-04-16 07:09:00,
2013-04-16 03:14:00,37.0,28.0,30.63,SW,225,0.0,0.0,69,0.00,,,0.00,Rainwise IP-100,2013-04-16 07:14:00,
2013-04-16 03:19:00,37.0,28.0,30.63,SE,135,0.0,0.0,69,0.00,,,0.00,Rainwise IP-100,2013-04-16 07:19:00,
2013-04-16 03:24:00,37.0,28.0,30.63,SE,135,0.0,0.0,69,0.00,,,0.00,Rainwise IP-100,2013-04-16 07:24:00,
2013-04-16 03:29:00,37.0,28.0,30.63,WSW,247,0.0,0.0,69,0.00,,,0.00,Rainwise IP-100,2013-04-16 07:29:00,
2013-04-16 03:34:00,37.0,28.0,30.63,WSW,247,5.0,0.0,69,0.00,,,0.00,Rainwise IP-100,2013-04-16 07:34:00,
2013-04-16 03:39:00,37.0,28.0,30.63,WSW,247,0.0,6.0,69,0.00,,,0.00,Rainwise IP-100,2013-04-16 07:39:00,
2013-04-16 03:44:00,37.0,28.0,30.63,WSW,247,0.0,0.0,69,0.00,,,0.00,Rainwise IP-100,2013-04-16 07:44:00,
2013-04-16 03:49:00,37.0,28.0,30.63,NW,315,0.0,5.0,68,0.00,,,0.00,Rainwise IP-100,2013-04-16 07:49:00,
2013-04-16 03:54:00,37.0,28.0,30.63,South,180,1.0,6.0,68,0.00,,,0.00,Rainwise IP-100,2013-04-16 07:54:00,
2013-04-16 03:59:00,37.0,28.0,30.63,SSE,157,0.0,3.0,68,0.00,,,0.00,Rainwise IP-100,2013-04-16 07:59:00,
2013-04-16 04:04:00,37.0,28.0,30.63,SE,135,1.0,2.0,68,0.00,,,0.00,Rainwise IP-100,2013-04-16 08:04:00,
2013-04-16 04:09:00,37.0,28.0,30.63,SE,135,0.0,2.0,68,0.00,,,0.00,Rainwise IP-100,2013-04-16 08:09:00,
2013-04-16 04:14:00,37.0,28.0,30.63,West,270,0.0,3.0,68,0.00,,,0.00,Rainwise IP-100,2013-04-16 08:14:00,
2013-04-16 04:20:00,38.0,29.0,30.62,NE,45,0.0,3.0,69,0.00,,,0.00,Rainwise IP-100,2013-04-16 08:20:00,
2013-04-16 04:25:00,38.0,29.0,30.62,SSE,157,0.0,3.0,69,0.00,,,0.00,Rainwise IP-100,2013-04-16 08:25:00,
2013-04-16 04:30:00,38.0,29.0,30.63,WNW,292,0.0,4.0,69,0.00,,,0.00,Rainwise IP-100,2013-04-16 08:30:00,
2013-04-16 04:36:00,38.0,28.0,30.63,NNE,22,0.0,0.0,67,0.00,,,0.00,Rainwise IP-100,2013-04-16 08:36:00,
2013-04-16 04:42:00,38.0,28.0,30.63,SW,225,0.0,4.0,67,0.00,,,0.00,Rainwise IP-100,2013-04-16 08:42:00,
2013-04-16 04:47:00,38.0,28.0,30.63,SSE,157,3.0,8.0,67,0.00,,,0.00,Rainwise IP-100,2013-04-16 08:47:00,
2013-04-16 04:53:00,38.0,28.0,30.63,WSW,247,0.0,6.0,67,0.00,,,0.00,Rainwise IP-100,2013-04-16 08:53:00,
2013-04-16 05:00:00,38.0,29.0,30.62,West,270,0.0,6.0,69,0.00,,,0.00,Rainwise IP-100,2013-04-16 09:00:00,
2013-04-16 05:05:00,38.0,29.0,30.62,North,360,0.0,5.0,68,0.00,,,0.00,Rainwise IP-100,2013-04-16 09:05:00,
2013-04-16 05:11:00,38.0,28.0,30.62,ENE,67,0.0,4.0,67,0.00,,,0.00,Rainwise IP-100,2013-04-16 09:11:00,
2013-04-16 05:16:00,38.0,28.0,30.62,SE,135,0.0,4.0,67,0.00,,,0.00,Rainwise IP-100,2013-04-16 09:16:00,
2013-04-16 05:21:00,38.0,28.0,30.62,South,180,0.0,2.0,67,0.00,,,0.00,Rainwise IP-100,2013-04-16 09:21:00,
2013-04-16 05:26:00,38.0,28.0,30.62,SSE,157,0.0,4.0,66,0.00,,,0.00,Rainwise IP-100,2013-04-16 09:26:00,
2013-04-16 05:31:00,38.0,28.0,30.62,SSE,157,2.0,7.0,66,0.00,,,0.00,Rainwise IP-100,2013-04-16 09:31:00,
2013-04-16 05:36:00,38.0,28.0,30.62,SSE,157,3.0,8.0,66,0.00,,,0.00,Rainwise IP-100,2013-04-16 09:36:00,
2013-04-16 05:41:00,38.0,28.0,30.62,SSE,157,3.0,7.0,66,0.00,,,0.00,Rainwise IP-100,2013-04-16 09:41:00,
2013-04-16 05:46:00,38.0,28.0,30.62,WNW,292,0.0,7.0,66,0.00,,,0.00,Rainwise IP-100,2013-04-16 09:46:00,
2013-04-16 05:52:00,38.0,28.0,30.62,SSE,157,0.0,4.0,66,0.00,,,0.00,Rainwise IP-100,2013-04-16 09:52:00,
2013-04-16 05:57:00,38.0,28.0,30.61,SSE,157,7.0,7.0,66,0.00,,,0.00,Rainwise IP-100,2013-04-16 09:57:00,
2013-04-16 06:02:00,38.0,28.0,30.61,SSE,157,7.0,7.0,66,0.00,,,0.00,Rainwise IP-100,2013-04-16 10:02:00,
2013-04-16 06:07:00,38.0,28.0,30.61,SSE,157,0.0,6.0,66,0.00,,,0.00,Rainwise IP-100,2013-04-16 10:07:00,
2013-04-16 06:13:00,38.0,28.0,30.61,SSE,157,1.0,7.0,66,0.00,,,0.00,Rainwise IP-100,2013-04-16 10:13:00,
2013-04-16 06:19:00,38.0,29.0,30.61,SSE,157,1.0,3.0,68,0.00,,,0.00,Rainwise IP-100,2013-04-16 10:19:00,
2013-04-16 06:26:00,38.0,28.0,30.62,SSE,157,0.0,4.0,66,0.00,,,0.00,Rainwise IP-100,2013-04-16 10:26:00,
2013-04-16 06:31:00,38.0,28.0,30.61,SSW,202,1.0,12.0,66,0.00,,,0.00,Rainwise IP-100,2013-04-16 10:31:00,
2013-04-16 06:36:00,38.0,28.0,30.61,West,270,0.0,6.0,66,0.00,,,0.00,Rainwise IP-100,2013-04-16 10:36:00,
2013-04-16 06:41:00,38.0,28.0,30.61,SSE,157,4.0,6.0,66,0.00,,,0.00,Rainwise IP-100,2013-04-16 10:41:00,
2013-04-16 06:46:00,38.0,28.0,30.62,SSE,157,0.0,7.0,66,0.00,,,0.00,Rainwise IP-100,2013-04-16 10:46:00,
2013-04-16 06:51:00,38.0,28.0,30.61,SSE,157,3.0,7.0,66,0.00,,,0.00,Rainwise IP-100,2013-04-16 10:51:00,
2013-04-16 06:56:00,39.0,29.0,30.62,SSE,157,2.0,6.0,66,0.00,,,0.00,Rainwise IP-100,2013-04-16 10:56:00,
2013-04-16 07:01:00,39.0,29.0,30.62,WSW,247,1.0,9.0,66,0.00,,,0.00,Rainwise IP-100,2013-04-16 11:01:00,
2013-04-16 07:06:00,39.0,29.0,30.62,SSW,202,0.0,12.0,66,0.00,,,0.00,Rainwise IP-100,2013-04-16 11:06:00,
2013-04-16 07:11:00,39.0,29.0,30.62,SSE,157,4.0,9.0,67,0.00,,,0.00,Rainwise IP-100,2013-04-16 11:11:00,
2013-04-16 07:16:00,39.0,29.0,30.62,ESE,112,5.0,7.0,67,0.00,,,0.00,Rainwise IP-100,2013-04-16 11:16:00,
2013-04-16 07:21:00,39.0,29.0,30.61,SSE,157,8.0,9.0,67,0.00,,,0.00,Rainwise IP-100,2013-04-16 11:21:00,
2013-04-16 07:26:00,39.0,29.0,30.61,SSE,157,7.0,10.0,67,0.00,,,0.00,Rainwise IP-100,2013-04-16 11:26:00,
2013-04-16 07:31:00,39.0,29.0,30.61,SSE,157,7.0,10.0,67,0.00,,,0.00,Rainwise IP-100,2013-04-16 11:31:00,
2013-04-16 07:36:00,39.0,29.0,30.61,SE,135,2.0,10.0,67,0.00,,,0.00,Rainwise IP-100,2013-04-16 11:36:00,
2013-04-16 07:41:00,39.0,29.0,30.61,SSE,157,1.0,9.0,67,0.00,,,0.00,Rainwise IP-100,2013-04-16 11:41:00,
2013-04-16 07:46:00,39.0,29.0,30.61,SW,225,0.0,10.0,67,0.00,,,0.00,Rainwise IP-100,2013-04-16 11:46:00,
2013-04-16 07:52:00,40.0,31.0,30.61,SSE,157,2.0,10.0,68,0.00,,,0.00,Rainwise IP-100,2013-04-16 11:52:00,
2013-04-16 07:57:00,40.0,31.0,30.61,SSE,157,7.0,11.0,68,0.00,,,0.00,Rainwise IP-100,2013-04-16 11:57:00,
2013-04-16 08:02:00,40.0,31.0,30.61,SSW,202,5.0,12.0,68,0.00,,,0.00,Rainwise IP-100,2013-04-16 12:02:00,
2013-04-16 08:07:00,40.0,31.0,30.61,ESE,112,2.0,12.0,68,0.00,,,0.00,Rainwise IP-100,2013-04-16 12:07:00,
2013-04-16 08:12:00,40.0,31.0,30.61,SE,135,9.0,12.0,68,0.00,,,0.00,Rainwise IP-100,2013-04-16 12:12:00,
2013-04-16 08:17:00,40.0,31.0,30.60,SSE,157,9.0,11.0,68,0.00,,,0.00,Rainwise IP-100,2013-04-16 12:17:00,
2013-04-16 08:22:00,40.0,31.0,30.60,SSE,157,7.0,12.0,68,0.00,,,0.00,Rainwise IP-100,2013-04-16 12:22:00,
2013-04-16 08:27:00,41.0,32.0,30.60,SSE,157,15.0,15.0,69,0.00,,,0.00,Rainwise IP-100,2013-04-16 12:27:00,
2013-04-16 08:32:00,41.0,32.0,30.60,SSE,157,12.0,16.0,70,0.00,,,0.00,Rainwise IP-100,2013-04-16 12:32:00,
2013-04-16 08:37:00,41.0,32.0,30.60,SE,135,6.0,15.0,70,0.00,,,0.00,Rainwise IP-100,2013-04-16 12:37:00,
2013-04-16 08:42:00,41.0,32.0,30.61,SSW,202,6.0,13.0,70,0.00,,,0.00,Rainwise IP-100,2013-04-16 12:42:00,
2013-04-16 08:47:00,42.0,33.0,30.61,SSE,157,9.0,12.0,70,0.00,,,0.00,Rainwise IP-100,2013-04-16 12:47:00,
2013-04-16 08:53:00,42.0,33.0,30.61,SSE,157,4.0,11.0,70,0.00,,,0.00,Rainwise IP-100,2013-04-16 12:53:00,
2013-04-16 08:58:00,43.0,35.0,30.61,SE,135,11.0,11.0,71,0.00,,,0.00,Rainwise IP-100,2013-04-16 12:58:00,
2013-04-16 09:06:00,43.0,35.0,30.61,SSE,157,9.0,12.0,72,0.00,,,0.00,Rainwise IP-100,2013-04-16 13:06:00,
2013-04-16 09:11:00,43.0,35.0,30.60,SSE,157,15.0,15.0,72,0.00,,,0.00,Rainwise IP-100,2013-04-16 13:11:00,
2013-04-16 09:16:00,44.0,36.0,30.60,SW,225,7.0,16.0,72,0.00,,,0.00,Rainwise IP-100,2013-04-16 13:16:00,
2013-04-16 09:21:00,43.0,35.0,30.60,SE,135,7.0,15.0,72,0.00,,,0.00,Rainwise IP-100,2013-04-16 13:21:00,
2013-04-16 09:26:00,43.0,35.0,30.59,SSE,157,5.0,23.0,72,0.00,,,0.00,Rainwise IP-100,2013-04-16 13:26:00,
2013-04-16 09:31:00,44.0,36.0,30.60,SSE,157,6.0,13.0,72,0.00,,,0.00,Rainwise IP-100,2013-04-16 13:31:00,
2013-04-16 09:36:00,44.0,36.0,30.60,SSE,157,9.0,17.0,72,0.00,,,0.00,Rainwise IP-100,2013-04-16 13:36:00,
2013-04-16 09:41:00,44.0,36.0,30.60,ESE,112,6.0,16.0,72,0.00,,,0.00,Rainwise IP-100,2013-04-16 13:41:00,
2013-04-16 09:46:00,44.0,36.0,30.61,WSW,247,3.0,18.0,72,0.00,,,0.00,Rainwise IP-100,2013-04-16 13:46:00,
2013-04-16 09:51:00,45.0,37.0,30.61,SE,135,7.0,15.0,72,0.00,,,0.00,Rainwise IP-100,2013-04-16 13:51:00,
2013-04-16 09:56:00,45.0,37.0,30.61,South,180,7.0,15.0,72,0.00,,,0.00,Rainwise IP-100,2013-04-16 13:56:00,
2013-04-16 10:01:00,45.0,37.0,30.61,SSE,157,4.0,19.0,72,0.00,,,0.00,Rainwise IP-100,2013-04-16 14:01:00,
2013-04-16 10:06:00,44.0,36.0,30.61,ESE,112,0.0,19.0,72,0.00,,,0.00,Rainwise IP-100,2013-04-16 14:06:00,
2013-04-16 10:11:00,44.0,36.0,30.61,SSE,157,9.0,15.0,72,0.00,,,0.00,Rainwise IP-100,2013-04-16 14:11:00,
2013-04-16 10:16:00,45.0,37.0,30.61,SSW,202,2.0,17.0,72,0.00,,,0.00,Rainwise IP-100,2013-04-16 14:16:00,
2013-04-16 10:22:00,45.0,37.0,30.61,SSE,157,12.0,15.0,72,0.00,,,0.00,Rainwise IP-100,2013-04-16 14:22:00,
2013-04-16 10:27:00,45.0,37.0,30.61,SE,135,12.0,17.0,72,0.00,,,0.00,Rainwise IP-100,2013-04-16 14:27:00,
2013-04-16 10:32:00,46.0,37.0,30.61,SSE,157,15.0,17.0,72,0.00,,,0.00,Rainwise IP-100,2013-04-16 14:32:00,
2013-04-16 10:37:00,46.0,37.0,30.61,SE,135,6.0,16.0,72,0.00,,,0.00,Rainwise IP-100,2013-04-16 14:37:00,
2013-04-16 10:42:00,47.0,38.0,30.60,WNW,292,0.0,15.0,72,0.00,,,0.00,Rainwise IP-100,2013-04-16 14:42:00,
2013-04-16 10:49:00,48.0,40.0,30.60,SE,135,7.0,9.0,73,0.00,,,0.00,Rainwise IP-100,2013-04-16 14:49:00,
2013-04-16 10:54:00,49.0,41.0,30.59,NNW,337,1.0,13.0,73,0.00,,,0.00,Rainwise IP-100,2013-04-16 14:54:00,
2013-04-16 10:59:00,49.0,41.0,30.60,SSE,157,5.0,13.0,73,0.00,,,0.00,Rainwise IP-100,2013-04-16 14:59:00,
2013-04-16 11:04:00,48.0,40.0,30.59,SSE,157,7.0,19.0,73,0.00,,,0.00,Rainwise IP-100,2013-04-16 15:04:00,
2013-04-16 11:09:00,47.0,38.0,30.59,WNW,292,4.0,20.0,72,0.00,,,0.00,Rainwise IP-100,2013-04-16 15:09:00,
2013-04-16 11:14:00,48.0,40.0,30.59,ESE,112,1.0,19.0,73,0.00,,,0.00,Rainwise IP-100,2013-04-16 15:14:00,
2013-04-16 11:19:00,48.0,40.0,30.58,SSW,202,1.0,20.0,73,0.00,,,0.00,Rainwise IP-100,2013-04-16 15:19:00,
2013-04-16 11:24:00,48.0,40.0,30.58,SSW,202,3.0,19.0,73,0.00,,,0.00,Rainwise IP-100,2013-04-16 15:24:00,
2013-04-16 11:31:00,48.0,40.0,30.58,SE,135,8.0,13.0,73,0.00,,,0.00,Rainwise IP-100,2013-04-16 15:31:00,
2013-04-16 11:36:00,49.0,41.0,30.58,East,90,1.0,13.0,73,0.00,,,0.00,Rainwise IP-100,2013-04-16 15:36:00,
2013-04-16 11:41:00,50.0,41.0,30.58,ESE,112,0.0,10.0,73,0.00,,,0.00,Rainwise IP-100,2013-04-16 15:41:00,
2013-04-16 11:47:00,49.0,41.0,30.57,SSE,157,5.0,16.0,73,0.00,,,0.00,Rainwise IP-100,2013-04-16 15:47:00,
2013-04-16 11:52:00,50.0,41.0,30.57,ENE,67,8.0,15.0,73,0.00,,,0.00,Rainwise IP-100,2013-04-16 15:52:00,
2013-04-16 12:07:00,49.0,41.0,30.57,WNW,292,0.0,12.0,73,0.00,,,0.00,Rainwise IP-100,2013-04-16 16:07:00,
2013-04-16 12:12:00,50.0,41.0,30.57,SSW,202,3.0,8.0,73,0.00,,,0.00,Rainwise IP-100,2013-04-16 16:12:00,
2013-04-16 12:17:00,50.0,41.0,30.56,ESE,112,0.0,10.0,73,0.00,,,0.00,Rainwise IP-100,2013-04-16 16:17:00,
2013-04-16 12:22:00,50.0,41.0,30.56,NW,315,0.0,11.0,73,0.00,,,0.00,Rainwise IP-100,2013-04-16 16:22:00,
2013-04-16 12:27:00,49.0,41.0,30.55,SSE,157,9.0,15.0,73,0.00,,,0.00,Rainwise IP-100,2013-04-16 16:27:00,
2013-04-16 12:32:00,48.0,40.0,30.55,SE,135,14.0,20.0,73,0.00,,,0.00,Rainwise IP-100,2013-04-16 16:32:00,
2013-04-16 12:37:00,47.0,38.0,30.55,SE,135,3.0,17.0,72,0.00,,,0.00,Rainwise IP-100,2013-04-16 16:37:00,
2013-04-16 12:42:00,47.0,38.0,30.55,SSE,157,8.0,20.0,72,0.00,,,0.00,Rainwise IP-100,2013-04-16 16:42:00,
2013-04-16 12:47:00,47.0,38.0,30.53,SSE,157,6.0,20.0,72,0.00,,,0.00,Rainwise IP-100,2013-04-16 16:47:00,
2013-04-16 12:52:00,46.0,37.0,30.53,SSE,157,14.0,19.0,72,0.00,,,0.00,Rainwise IP-100,2013-04-16 16:52:00,
2013-04-16 12:57:00,47.0,38.0,30.53,WSW,247,0.0,19.0,72,0.00,,,0.00,Rainwise IP-100,2013-04-16 16:57:00,
2013-04-16 13:05:00,47.0,38.0,30.52,SSE,157,7.0,22.0,72,0.00,,,0.00,Rainwise IP-100,2013-04-16 17:05:00,
2013-04-16 13:10:00,47.0,38.0,30.51,South,180,1.0,18.0,72,0.00,,,0.00,Rainwise IP-100,2013-04-16 17:10:00,
2013-04-16 13:15:00,48.0,40.0,30.51,SSE,157,9.0,17.0,73,0.00,,,0.00,Rainwise IP-100,2013-04-16 17:15:00,
2013-04-16 13:20:00,48.0,40.0,30.51,SSE,157,7.0,22.0,73,0.00,,,0.00,Rainwise IP-100,2013-04-16 17:20:00,
2013-04-16 13:25:00,48.0,40.0,30.51,South,180,2.0,25.0,73,0.00,,,0.00,Rainwise IP-100,2013-04-16 17:25:00,
2013-04-16 13:30:00,48.0,40.0,30.50,SE,135,16.0,20.0,73,0.00,,,0.00,Rainwise IP-100,2013-04-16 17:30:00,
2013-04-16 13:35:00,48.0,40.0,30.50,SE,135,13.0,19.0,73,0.00,,,0.00,Rainwise IP-100,2013-04-16 17:35:00,
2013-04-16 13:41:00,48.0,40.0,30.49,SSE,157,9.0,20.0,73,0.00,,,0.00,Rainwise IP-100,2013-04-16 17:41:00,
2013-04-16 13:46:00,49.0,41.0,30.49,SSE,157,12.0,19.0,73,0.00,,,0.00,Rainwise IP-100,2013-04-16 17:46:00,
2013-04-16 13:51:00,48.0,40.0,30.49,SSW,202,7.0,20.0,73,0.00,,,0.00,Rainwise IP-100,2013-04-16 17:51:00,
2013-04-16 13:56:00,47.0,38.0,30.49,SSE,157,16.0,17.0,72,0.00,,,0.00,Rainwise IP-100,2013-04-16 17:56:00,
2013-04-16 14:01:00,46.0,37.0,30.49,SSE,157,6.0,17.0,72,0.00,,,0.00,Rainwise IP-100,2013-04-16 18:01:00,
2013-04-16 14:06:00,47.0,38.0,30.50,South,180,5.0,13.0,72,0.00,,,0.00,Rainwise IP-100,2013-04-16 18:06:00,
2013-04-16 14:11:00,47.0,38.0,30.49,SSE,157,13.0,17.0,72,0.00,,,0.00,Rainwise IP-100,2013-04-16 18:11:00,
2013-04-16 14:16:00,47.0,38.0,30.49,SE,135,1.0,21.0,72,0.00,,,0.00,Rainwise IP-100,2013-04-16 18:16:00,
2013-04-16 14:21:00,45.0,37.0,30.47,SSE,157,13.0,18.0,72,0.00,,,0.00,Rainwise IP-100,2013-04-16 18:21:00,
2013-04-16 14:26:00,44.0,36.0,30.47,SSE,157,16.0,20.0,72,0.00,,,0.00,Rainwise IP-100,2013-04-16 18:26:00,
2013-04-16 14:31:00,44.0,36.0,30.47,SE,135,14.0,19.0,72,0.00,,,0.00,Rainwise IP-100,2013-04-16 18:31:00,
2013-04-16 14:37:00,44.0,36.0,30.46,SSE,157,16.0,20.0,72,0.00,,,0.00,Rainwise IP-100,2013-04-16 18:37:00,
2013-04-16 14:42:00,44.0,36.0,30.46,SSE,157,10.0,21.0,72,0.00,,,0.00,Rainwise IP-100,2013-04-16 18:42:00,
2013-04-16 14:47:00,44.0,36.0,30.46,SSE,157,12.0,17.0,72,0.00,,,0.00,Rainwise IP-100,2013-04-16 18:47:00,
2013-04-16 14:52:00,44.0,36.0,30.45,SE,135,12.0,19.0,72,0.00,,,0.00,Rainwise IP-100,2013-04-16 18:52:00,
2013-04-16 14:57:00,44.0,36.0,30.45,SSE,157,10.0,19.0,72,0.00,,,0.00,Rainwise IP-100,2013-04-16 18:57:00,
2013-04-16 15:03:00,44.0,36.0,30.44,SSE,157,13.0,19.0,72,0.00,,,0.00,Rainwise IP-100,2013-04-16 19:03:00,
2013-04-16 15:08:00,44.0,36.0,30.44,SE,135,16.0,19.0,72,0.00,,,0.00,Rainwise IP-100,2013-04-16 19:08:00,
2013-04-16 15:13:00,44.0,36.0,30.45,SSE,157,13.0,18.0,72,0.00,,,0.00,Rainwise IP-100,2013-04-16 19:13:00,
2013-04-16 15:18:00,45.0,37.0,30.44,SSW,202,4.0,20.0,72,0.00,,,0.00,Rainwise IP-100,2013-04-16 19:18:00,
2013-04-16 15:23:00,45.0,37.0,30.44,SSE,157,10.0,17.0,72,0.00,,,0.00,Rainwise IP-100,2013-04-16 19:23:00,
2013-04-16 15:28:00,45.0,37.0,30.43,SSE,157,9.0,25.0,72,0.00,,,0.00,Rainwise IP-100,2013-04-16 19:28:00,
2013-04-16 15:33:00,45.0,37.0,30.43,SSE,157,9.0,22.0,72,0.00,,,0.00,Rainwise IP-100,2013-04-16 19:33:00,
2013-04-16 15:38:00,46.0,37.0,30.42,SE,135,16.0,22.0,72,0.00,,,0.00,Rainwise IP-100,2013-04-16 19:38:00,
2013-04-16 15:43:00,46.0,37.0,30.42,SE,135,12.0,18.0,72,0.00,,,0.00,Rainwise IP-100,2013-04-16 19:43:00,
2013-04-16 15:48:00,45.0,37.0,30.42,ENE,67,3.0,17.0,72,0.00,,,0.00,Rainwise IP-100,2013-04-16 19:48:00,
2013-04-16 15:53:00,45.0,37.0,30.43,NW,315,0.0,16.0,72,0.00,,,0.00,Rainwise IP-100,2013-04-16 19:53:00,
2013-04-16 15:58:00,45.0,37.0,30.42,SSE,157,10.0,19.0,72,0.00,,,0.00,Rainwise IP-100,2013-04-16 19:58:00,
2013-04-16 16:03:00,46.0,37.0,30.41,ESE,112,4.0,16.0,72,0.00,,,0.00,Rainwise IP-100,2013-04-16 20:03:00,
2013-04-16 16:08:00,45.0,37.0,30.41,South,180,0.0,16.0,72,0.00,,,0.00,Rainwise IP-100,2013-04-16 20:08:00,
2013-04-16 16:13:00,45.0,37.0,30.41,SSE,157,3.0,17.0,72,0.00,,,0.00,Rainwise IP-100,2013-04-16 20:13:00,
2013-04-16 16:18:00,45.0,37.0,30.41,SSE,157,8.0,16.0,72,0.00,,,0.00,Rainwise IP-100,2013-04-16 20:18:00,
2013-04-16 16:23:00,45.0,37.0,30.40,WSW,247,7.0,15.0,72,0.00,,,0.00,Rainwise IP-100,2013-04-16 20:23:00,
2013-04-16 16:28:00,45.0,37.0,30.40,SSE,157,4.0,22.0,72,0.00,,,0.00,Rainwise IP-100,2013-04-16 20:28:00,
2013-04-16 16:34:00,45.0,37.0,30.41,SSW,202,3.0,19.0,72,0.00,,,0.00,Rainwise IP-100,2013-04-16 20:34:00,
2013-04-16 16:39:00,45.0,37.0,30.40,West,270,0.0,17.0,72,0.00,,,0.00,Rainwise IP-100,2013-04-16 20:39:00,
2013-04-16 16:44:00,45.0,37.0,30.39,SSE,157,7.0,13.0,72,0.00,,,0.00,Rainwise IP-100,2013-04-16 20:44:00,
2013-04-16 16:49:00,45.0,37.0,30.40,SSE,157,2.0,16.0,72,0.00,,,0.00,Rainwise IP-100,2013-04-16 20:49:00,
2013-04-16 16:54:00,45.0,37.0,30.40,SSE,157,3.0,17.0,72,0.00,,,0.00,Rainwise IP-100,2013-04-16 20:54:00,
2013-04-16 16:59:00,44.0,36.0,30.39,SSE,157,11.0,17.0,72,0.00,,,0.00,Rainwise IP-100,2013-04-16 20:59:00,
2013-04-16 17:04:00,44.0,36.0,30.38,SE,135,10.0,19.0,72,0.00,,,0.00,Rainwise IP-100,2013-04-16 21:04:00,
2013-04-16 17:09:00,44.0,36.0,30.39,ESE,112,0.0,17.0,72,0.00,,,0.00,Rainwise IP-100,2013-04-16 21:09:00,
2013-04-16 17:14:00,44.0,36.0,30.39,SSE,157,0.0,16.0,72,0.00,,,0.00,Rainwise IP-100,2013-04-16 21:14:00,
2013-04-16 17:19:00,44.0,36.0,30.38,SE,135,3.0,15.0,72,0.00,,,0.00,Rainwise IP-100,2013-04-16 21:19:00,
2013-04-16 17:24:00,44.0,36.0,30.38,NW,315,0.0,16.0,72,0.00,,,0.00,Rainwise IP-100,2013-04-16 21:24:00,
2013-04-16 17:31:00,43.0,35.0,30.37,SSE,157,4.0,19.0,71,0.00,,,0.00,Rainwise IP-100,2013-04-16 21:31:00,
2013-04-16 17:37:00,43.0,35.0,30.36,SSE,157,10.0,15.0,71,0.00,,,0.00,Rainwise IP-100,2013-04-16 21:37:00,
2013-04-16 17:42:00,42.0,33.0,30.36,SW,225,0.0,15.0,70,0.06,,,0.01,Rainwise IP-100,2013-04-16 21:42:00,
2013-04-16 17:47:00,42.0,33.0,30.35,SE,135,7.0,13.0,69,0.06,,,0.01,Rainwise IP-100,2013-04-16 21:47:00,
2013-04-16 17:52:00,42.0,32.0,30.35,SSE,157,2.0,17.0,68,0.00,,,0.01,Rainwise IP-100,2013-04-16 21:52:00,
2013-04-16 17:57:00,42.0,32.0,30.35,SE,135,4.0,15.0,68,0.00,,,0.01,Rainwise IP-100,2013-04-16 21:57:00,
2013-04-16 18:02:00,42.0,32.0,30.34,SSE,157,4.0,15.0,68,0.06,,,0.02,Rainwise IP-100,2013-04-16 22:02:00,
2013-04-16 18:07:00,42.0,32.0,30.33,SSW,202,3.0,13.0,68,0.06,,,0.02,Rainwise IP-100,2013-04-16 22:07:00,
2013-04-16 18:12:00,42.0,32.0,30.33,SSE,157,0.0,12.0,67,0.00,,,0.02,Rainwise IP-100,2013-04-16 22:12:00,
2013-04-16 18:17:00,42.0,32.0,30.33,SSE,157,2.0,10.0,67,0.00,,,0.02,Rainwise IP-100,2013-04-16 22:17:00,
2013-04-16 18:22:00,42.0,32.0,30.32,SSW,202,0.0,15.0,67,0.00,,,0.02,Rainwise IP-100,2013-04-16 22:22:00,
2013-04-16 18:27:00,42.0,32.0,30.33,SSE,157,0.0,10.0,66,0.00,,,0.02,Rainwise IP-100,2013-04-16 22:27:00,
2013-04-16 18:32:00,42.0,32.0,30.33,SSE,157,2.0,12.0,66,0.00,,,0.02,Rainwise IP-100,2013-04-16 22:32:00,
2013-04-16 18:37:00,42.0,32.0,30.32,North,360,0.0,8.0,66,0.00,,,0.02,Rainwise IP-100,2013-04-16 22:37:00,
2013-04-16 18:42:00,42.0,32.0,30.32,SSE,157,0.0,8.0,66,0.06,,,0.03,Rainwise IP-100,2013-04-16 22:42:00,
2013-04-16 18:47:00,42.0,32.0,30.31,SW,225,0.0,9.0,66,0.06,,,0.03,Rainwise IP-100,2013-04-16 22:47:00,
2013-04-16 18:52:00,42.0,32.0,30.31,NW,315,3.0,11.0,66,0.00,,,0.03,Rainwise IP-100,2013-04-16 22:52:00,
2013-04-16 18:57:00,42.0,32.0,30.31,WNW,292,0.0,15.0,66,0.00,,,0.03,Rainwise IP-100,2013-04-16 22:57:00,
2013-04-16 19:02:00,42.0,32.0,30.31,West,270,4.0,8.0,66,0.00,,,0.03,Rainwise IP-100,2013-04-16 23:02:00,
2013-04-16 19:07:00,42.0,32.0,30.31,WNW,292,3.0,12.0,66,0.00,,,0.03,Rainwise IP-100,2013-04-16 23:07:00,
2013-04-16 19:12:00,42.0,32.0,30.31,WSW,247,1.0,12.0,66,0.06,,,0.04,Rainwise IP-100,2013-04-16 23:12:00,
2013-04-16 19:17:00,42.0,32.0,30.31,NNW,337,0.0,9.0,66,0.12,,,0.05,Rainwise IP-100,2013-04-16 23:17:00,
2013-04-16 19:23:00,42.0,32.0,30.31,West,270,0.0,12.0,65,0.06,,,0.05,Rainwise IP-100,2013-04-16 23:23:00,
2013-04-16 19:28:00,42.0,32.0,30.30,ENE,67,0.0,9.0,65,0.00,,,0.05,Rainwise IP-100,2013-04-16 23:28:00,
2013-04-16 19:33:00,42.0,32.0,30.30,WSW,247,1.0,7.0,65,0.00,,,0.05,Rainwise IP-100,2013-04-16 23:33:00,
2013-04-16 19:38:00,42.0,32.0,30.30,SW,225,0.0,14.0,65,0.00,,,0.05,Rainwise IP-100,2013-04-16 23:38:00,
2013-04-16 19:43:00,42.0,32.0,30.29,WNW,292,1.0,9.0,65,0.00,,,0.05,Rainwise IP-100,2013-04-16 23:43:00,
2013-04-16 19:48:00,42.0,32.0,30.29,ENE,67,0.0,22.0,65,0.00,,,0.05,Rainwise IP-100,2013-04-16 23:48:00,
2013-04-16 19:53:00,42.0,32.0,30.29,West,270,0.0,11.0,65,0.00,,,0.05,Rainwise IP-100,2013-04-16 23:53:00,
2013-04-16 19:58:00,42.0,32.0,30.29,SSW,202,0.0,9.0,65,0.00,,,0.05,Rainwise IP-100,2013-04-16 23:58:00,
2013-04-16 20:03:00,42.0,32.0,30.29,SW,225,2.0,6.0,65,0.00,,,0.05,Rainwise IP-100,2013-04-17 00:03:00,
2013-04-16 20:08:00,43.0,32.0,30.29,South,180,6.0,7.0,66,0.00,,,0.05,Rainwise IP-100,2013-04-17 00:08:00,
2013-04-16 20:13:00,43.0,32.0,30.27,NNW,337,1.0,9.0,65,0.00,,,0.05,Rainwise IP-100,2013-04-17 00:13:00,
2013-04-16 20:18:00,43.0,32.0,30.27,WNW,292,0.0,12.0,65,0.00,,,0.05,Rainwise IP-100,2013-04-17 00:18:00,
2013-04-16 20:27:00,43.0,32.0,30.29,SSW,202,2.0,12.0,65,0.00,,,0.05,Rainwise IP-100,2013-04-17 00:27:00,
2013-04-16 20:32:00,43.0,32.0,30.28,NW,315,0.0,10.0,65,0.00,,,0.05,Rainwise IP-100,2013-04-17 00:32:00,
2013-04-16 20:37:00,43.0,32.0,30.28,West,270,1.0,11.0,65,0.00,,,0.05,Rainwise IP-100,2013-04-17 00:37:00,
2013-04-16 20:42:00,43.0,32.0,30.27,SW,225,0.0,11.0,65,0.00,,,0.05,Rainwise IP-100,2013-04-17 00:42:00,
2013-04-16 20:47:00,43.0,32.0,30.27,SSW,202,3.0,10.0,66,0.00,,,0.05,Rainwise IP-100,2013-04-17 00:47:00,
2013-04-16 20:52:00,43.0,32.0,30.26,NE,45,0.0,10.0,66,0.00,,,0.05,Rainwise IP-100,2013-04-17 00:52:00,
2013-04-16 20:57:00,43.0,32.0,30.25,East,90,0.0,14.0,66,0.00,,,0.05,Rainwise IP-100,2013-04-17 00:57:00,
2013-04-16 21:02:00,43.0,32.0,30.25,South,180,5.0,16.0,66,0.00,,,0.05,Rainwise IP-100,2013-04-17 01:02:00,
2013-04-16 21:07:00,44.0,33.0,30.26,West,270,0.0,11.0,66,0.00,,,0.05,Rainwise IP-100,2013-04-17 01:07:00,
2013-04-16 21:12:00,44.0,33.0,30.25,SSW,202,4.0,12.0,66,0.00,,,0.05,Rainwise IP-100,2013-04-17 01:12:00,
2013-04-16 21:17:00,44.0,33.0,30.25,South,180,2.0,10.0,66,0.00,,,0.05,Rainwise IP-100,2013-04-17 01:17:00,
2013-04-16 21:22:00,44.0,33.0,30.24,South,180,7.0,7.0,66,0.00,,,0.05,Rainwise IP-100,2013-04-17 01:22:00,
2013-04-16 21:27:00,44.0,33.0,30.25,WSW,247,5.0,15.0,66,0.00,,,0.05,Rainwise IP-100,2013-04-17 01:27:00,
2013-04-16 21:32:00,44.0,33.0,30.24,NE,45,3.0,10.0,66,0.00,,,0.05,Rainwise IP-100,2013-04-17 01:32:00,
2013-04-16 21:37:00,44.0,33.0,30.23,North,360,3.0,9.0,67,0.00,,,0.05,Rainwise IP-100,2013-04-17 01:37:00,
2013-04-16 21:43:00,44.0,33.0,30.23,SE,135,0.0,9.0,66,0.00,,,0.05,Rainwise IP-100,2013-04-17 01:43:00,
2013-04-16 21:48:00,44.0,33.0,30.23,ENE,67,0.0,9.0,67,0.00,,,0.05,Rainwise IP-100,2013-04-17 01:48:00,
2013-04-16 21:53:00,44.0,33.0,30.23,NE,45,1.0,8.0,67,0.00,,,0.05,Rainwise IP-100,2013-04-17 01:53:00,
2013-04-16 21:58:00,44.0,33.0,30.23,NW,315,1.0,6.0,67,0.00,,,0.05,Rainwise IP-100,2013-04-17 01:58:00,
2013-04-16 22:04:00,44.0,33.0,30.23,SE,135,6.0,12.0,67,0.00,,,0.05,Rainwise IP-100,2013-04-17 02:04:00,
2013-04-16 22:09:00,44.0,33.0,30.21,SSW,202,3.0,12.0,67,0.00,,,0.05,Rainwise IP-100,2013-04-17 02:09:00,
2013-04-16 22:14:00,45.0,35.0,30.22,NNW,337,0.0,12.0,67,0.00,,,0.05,Rainwise IP-100,2013-04-17 02:14:00,
2013-04-16 22:19:00,45.0,35.0,30.22,SSW,202,3.0,9.0,67,0.00,,,0.05,Rainwise IP-100,2013-04-17 02:19:00,
2013-04-16 22:24:00,45.0,35.0,30.22,SSE,157,0.0,8.0,67,0.00,,,0.05,Rainwise IP-100,2013-04-17 02:24:00,
2013-04-16 22:29:00,45.0,35.0,30.22,SSW,202,0.0,13.0,67,0.00,,,0.05,Rainwise IP-100,2013-04-17 02:29:00,
2013-04-16 22:34:00,45.0,35.0,30.21,WSW,247,1.0,10.0,67,0.06,,,0.06,Rainwise IP-100,2013-04-17 02:34:00,
2013-04-16 22:39:00,45.0,35.0,30.21,North,360,0.0,13.0,67,0.06,,,0.06,Rainwise IP-100,2013-04-17 02:39:00,
2013-04-16 22:44:00,45.0,35.0,30.20,NE,45,4.0,6.0,67,0.00,,,0.06,Rainwise IP-100,2013-04-17 02:44:00,
2013-04-16 22:49:00,45.0,35.0,30.20,WSW,247,9.0,9.0,67,0.00,,,0.06,Rainwise IP-100,2013-04-17 02:49:00,
2013-04-16 22:54:00,45.0,35.0,30.20,ESE,112,1.0,14.0,67,0.00,,,0.06,Rainwise IP-100,2013-04-17 02:54:00,
2013-04-16 22:59:00,45.0,35.0,30.20,NW,315,0.0,12.0,67,0.06,,,0.07,Rainwise IP-100,2013-04-17 02:59:00,
2013-04-16 23:04:00,45.0,35.0,30.19,ESE,112,7.0,12.0,66,0.12,,,0.08,Rainwise IP-100,2013-04-17 03:04:00,
2013-04-16 23:09:00,44.0,33.0,30.19,NW,315,3.0,9.0,66,0.30,,,0.12,Rainwise IP-100,2013-04-17 03:09:00,
2013-04-16 23:15:00,44.0,33.0,30.19,NW,315,7.0,8.0,66,0.36,,,0.14,Rainwise IP-100,2013-04-17 03:15:00,
2013-04-16 23:20:00,44.0,33.0,30.18,WSW,247,6.0,10.0,65,0.12,,,0.14,Rainwise IP-100,2013-04-17 03:20:00,
2013-04-16 23:25:00,44.0,33.0,30.18,NW,315,2.0,14.0,65,0.06,,,0.15,Rainwise IP-100,2013-04-17 03:25:00,
2013-04-16 23:30:00,44.0,33.0,30.18,ESE,112,1.0,17.0,65,0.06,,,0.15,Rainwise IP-100,2013-04-17 03:30:00,
2013-04-16 23:35:00,44.0,33.0,30.18,WNW,292,0.0,10.0,64,0.00,,,0.15,Rainwise IP-100,2013-04-17 03:35:00,
2013-04-16 23:40:00,44.0,33.0,30.17,NNE,22,0.0,11.0,64,0.00,,,0.15,Rainwise IP-100,2013-04-17 03:40:00,
2013-04-16 23:45:00,44.0,33.0,30.17,WNW,292,2.0,6.0,64,0.00,,,0.15,Rainwise IP-100,2013-04-17 03:45:00,
2013-04-16 23:50:00,44.0,32.0,30.17,NNW,337,1.0,8.0,63,0.00,,,0.15,Rainwise IP-100,2013-04-17 03:50:00,
2013-04-16 23:55:00,44.0,32.0,30.17,North,360,1.0,8.0,63,0.00,,,0.15,Rainwise IP-100,2013-04-17 03:55:00,